N3WAX-1 Weather Reports


Display with metric or nautical units.
time (UTC)temp
F
wind
direction
speed
MPH
gust
MPH
rain 1hr
in
rain 24hr
in
rain mn
in
humidity
%
barometer
mb
20260505053544 57 138 2.0 8.0 0.00 0.00 0.00 77 1010.8
20260505053043 56 136 2.0 8.0 0.00 0.00 0.00 78 1010.9
20260505052545 55 169 2.0 4.0 0.00 0.00 0.00 78 1010.8
20260505052042 55 159 2.0 4.0 0.00 0.00 0.00 77 1011.0
20260505051541 55 108 2.0 7.0 0.00 0.00 0.00 77 1010.9
20260505051042 55 144 2.0 7.0 0.00 0.00 0.00 78 1010.9
20260505050541 55 149 1.0 4.0 0.00 0.00 0.00 78 1011.0
20260505041538 56 109 2.0 5.0 0.00 0.00 0.00 72 1010.8
20260505041039 56 103 2.0 4.0 0.00 0.00 0.00 70 1010.7
20260505040537 57 123 2.0 4.0 0.00 0.00 0.00 70 1010.7
20260505040038 57 133 2.0 4.0 0.00 0.00 0.00 70 1010.7
20260505035537 57 121 2.0 6.0 0.00 0.00 0.00 68 1010.6
20260505035301 58 94 3.0 6.0 0.00 0.00 0.00 67 1010.6
20260505034537 58 81 3.0 7.0 0.00 0.00 0.00 67 1010.7
20260505034038 59 86 4.0 8.0 0.00 0.00 0.00 66 1010.7
20260505033806 59 98 3.0 8.0 0.00 0.00 0.00 65 1010.7
20260505033039 59 71 3.0 10.0 0.00 0.00 0.00 65 1010.7
20260505032539 59 109 4.0 10.0 0.00 0.00 0.00 64 1010.7
20260505032039 59 123 3.0 8.0 0.00 0.00 0.00 64 1010.8
20260505031803 59 142 3.0 8.0 0.00 0.00 0.00 65 1010.8
20260505031040 58 123 3.0 8.0 0.00 0.00 0.00 65 1010.8
20260505030535 58 88 3.0 7.0 0.00 0.00 0.00 65 1010.8
20260505030028 58 93 3.0 6.0 0.00 0.00 0.00 66 1010.8
20260505025519 58 89 3.0 7.0 0.00 0.00 0.00 66 1010.7
20260505025233 58 87 3.0 7.0 0.00 0.00 0.00 66 1010.7
20260505024505 58 89 3.0 6.0 0.00 0.00 0.00 65 1010.8
20260505023954 58 92 3.0 6.0 0.00 0.00 0.00 64 1010.8
20260505023448 59 86 3.0 6.0 0.00 0.00 0.00 63 1010.7
20260505022943 59 84 3.0 6.0 0.00 0.00 0.00 62 1010.9
20260505022433 60 86 3.0 6.0 0.00 0.00 0.00 62 1010.8
20260505021927 60 92 3.0 6.0 0.00 0.00 0.00 61 1010.9
20260505021420 60 101 2.0 6.0 0.00 0.00 0.00 61 1011.0
20260505020911 60 121 2.0 6.0 0.00 0.00 0.00 61 1011.0
20260505020404 60 119 3.0 7.0 0.00 0.00 0.00 61 1011.0
20260505020124 60 122 2.0 7.0 0.00 0.00 0.00 60 1011.0
20260505015348 61 143 2.0 8.0 0.00 0.00 0.00 59 1011.1
20260505014842 61 107 3.0 8.0 0.00 0.00 0.00 59 1011.0
20260505014336 61 137 3.0 7.0 0.00 0.00 0.00 59 1011.0
20260505013826 60 156 2.0 7.0 0.00 0.00 0.00 59 1011.0
20260505013322 61 131 2.0 6.0 0.00 0.00 0.00 59 1010.8
20260505012814 61 112 3.0 8.0 0.00 0.00 0.00 59 1010.8
20260505012305 62 114 3.0 8.0 0.00 0.00 0.00 58 1010.7
20260505011759 62 118 4.0 9.0 0.00 0.00 0.00 57 1010.7
20260505011252 61 90 3.0 9.0 0.00 0.00 0.00 58 1010.7
20260505010743 61 135 2.0 8.0 0.00 0.00 0.00 57 1010.6
20260505010237 61 107 2.0 8.0 0.00 0.00 0.00 58 1010.6
20260505005949 62 112 3.0 8.0 0.00 0.00 0.00 57 1010.6
20260505005220 62 114 3.0 8.0 0.00 0.00 0.00 56 1010.5
20260505004715 63 101 2.0 7.0 0.00 0.00 0.00 55 1010.6
20260505004208 63 101 2.0 7.0 0.00 0.00 0.00 54 1010.5
20260505003658 64 126 3.0 7.0 0.00 0.00 0.00 53 1010.4
20260505003153 64 126 3.0 7.0 0.00 0.00 0.00 54 1010.5
20260505002904 64 134 3.0 7.0 0.00 0.00 0.00 53 1010.5
20260505002135 64 117 3.0 12.0 0.00 0.00 0.00 52 1010.3
20260505001628 65 142 3.0 12.0 0.00 0.00 0.00 51 1010.3
20260505001123 65 137 3.0 10.0 0.00 0.00 0.00 51 1010.3
20260505000610 65 167 3.0 10.0 0.00 0.00 0.00 50 1010.3
20260505000103 65 155 3.0 9.0 0.00 0.00 0.00 50 1010.4
20260504235754 66 117 3.0 9.0 0.00 0.00 0.00 48 1010.1
20260504235641 66 145 3.0 8.0 0.00 0.00 0.00 49 1010.3
20260504234542 67 134 4.0 9.0 0.00 0.00 0.00 48 1010.2
20260504234254 67 143 4.0 10.0 0.00 0.00 0.00 48 1010.2
20260504233532 67 141 4.0 10.0 0.00 0.00 0.00 47 1010.2
20260504233029 68 117 5.0 10.0 0.00 0.00 0.00 47 1010.3
20260504232529 68 117 5.0 13.0 0.00 0.00 0.00 46 1010.2
20260504232031 68 135 5.0 13.0 0.00 0.00 0.00 46 1010.3
20260504231528 68 119 5.0 10.0 0.00 0.00 0.00 46 1010.3
20260504231027 69 106 5.0 12.0 0.00 0.00 0.00 46 1010.2
20260504230528 69 128 4.0 12.0 0.00 0.00 0.00 45 1010.3
20260504230025 69 117 5.0 14.0 0.00 0.00 0.00 47 1010.2
20260504225526 69 121 6.0 14.0 0.00 0.00 0.00 45 1010.3
20260504225024 69 136 5.0 14.0 0.00 0.00 0.00 45 1010.3
20260504224523 69 126 6.0 14.0 0.00 0.00 0.00 46 1010.3
20260504224024 69 73 6.0 15.0 0.00 0.00 0.00 45 1010.3
20260504223523 69 128 6.0 15.0 0.00 0.00 0.00 45 1010.3
20260504223027 69 123 6.0 14.0 0.00 0.00 0.00 47 1010.3
20260504222526 69 131 7.0 19.0 0.00 0.00 0.00 45 1010.3
20260504222017 70 150 7.0 19.0 0.00 0.00 0.00 45 1010.3
20260504221511 70 60 7.0 16.0 0.00 0.00 0.00 45 1010.2
20260504221005 70 136 6.0 16.0 0.00 0.00 0.00 43 1010.3
20260504220454 70 179 4.0 15.0 0.00 0.00 0.00 45 1010.2
20260504220219 70 194 5.0 15.0 0.00 0.00 0.00 45 1010.2
20260504215450 70 111 6.0 16.0 0.00 0.00 0.00 45 1010.2
20260504214948 70 152 6.0 16.0 0.00 0.00 0.00 44 1010.3
20260504214448 70 140 7.0 18.0 0.00 0.00 0.00 45 1010.3
20260504213947 70 116 8.0 18.0 0.00 0.00 0.00 45 1010.3
20260504213446 70 138 7.0 15.0 0.00 0.00 0.00 44 1010.3
20260504212945 70 100 6.0 13.0 0.00 0.00 0.00 43 1010.3
20260504212445 70 105 8.0 18.0 0.00 0.00 0.00 45 1010.3
20260504211944 70 164 8.0 18.0 0.00 0.00 0.00 45 1010.3
20260504211711 70 144 7.0 18.0 0.00 0.00 0.00 45 1010.3
20260504210944 70 117 8.0 18.0 0.00 0.00 0.00 41 1010.4
20260504210446 70 76 8.0 18.0 0.00 0.00 0.00 42 1010.3
20260504210209 71 152 7.0 18.0 0.00 0.00 0.00 43 1010.3
20260504205441 71 194 6.0 18.0 0.00 0.00 0.00 45 1010.3
20260504204942 71 152 6.0 18.0 0.00 0.00 0.00 45 1010.3
20260504204704 70 130 9.0 18.0 0.00 0.00 0.00 45 1010.3
20260504204427 70 127 8.0 18.0 0.00 0.00 0.00 42 1010.2
20260504203441 71 109 6.0 16.0 0.00 0.00 0.00 46 1010.2
20260504202941 71 108 7.0 14.0 0.00 0.00 0.00 44 1010.3
20260504202442 71 117 7.0 14.0 0.00 0.00 0.00 47 1010.4
20260504201942 71 148 6.0 18.0 0.00 0.00 0.00 45 1010.4
20260504201442 70 136 7.0 18.0 0.00 0.00 0.00 44 1010.6
20260504201208 70 171 8.0 18.0 0.00 0.00 0.00 43 1010.7
20260504200442 70 142 6.0 16.0 0.00 0.00 0.00 44 1010.7
20260504195942 70 109 6.0 17.0 0.00 0.00 0.00 48 1010.8
20260504195442 70 155 7.0 17.0 0.00 0.00 0.00 44 1010.8
20260504194941 71 172 6.0 13.0 0.00 0.00 0.00 46 1010.9
20260504194706 70 167 7.0 16.0 0.00 0.00 0.00 47 1010.9
20260504193942 70 124 8.0 16.0 0.00 0.00 0.00 47 1011.0
20260504193437 69 144 9.0 19.0 0.00 0.00 0.00 47 1011.1
20260504192937 69 154 7.0 19.0 0.00 0.00 0.00 49 1011.3
20260504192438 70 118 7.0 18.0 0.00 0.00 0.00 45 1011.4
20260504192206 70 143 8.0 18.0 0.00 0.00 0.00 45 1011.4
20260504191432 69 212 8.0 15.0 0.00 0.00 0.00 47 1011.4
20260504191410 69 134 8.0 15.0 0.00 0.00 0.00 50 1011.5
20260504191026 69 126 7.0 15.0 0.00 0.00 0.00 48 1011.5
20260504185932 69 84 9.0 17.0 0.00 0.00 0.00 45 1011.5
20260504185658 69 119 8.0 17.0 0.00 0.00 0.00 48 1011.6
20260504184932 69 122 7.0 14.0 0.00 0.00 0.00 47 1011.7
20260504184436 69 119 7.0 14.0 0.00 0.00 0.00 47 1011.6
20260504183936 69 124 7.0 14.0 0.00 0.00 0.00 50 1011.6
20260504183429 70 127 6.0 14.0 0.00 0.00 0.00 46 1011.6
20260504182919 69 155 6.0 14.0 0.00 0.00 0.00 48 1011.6
20260504182414 70 167 6.0 14.0 0.00 0.00 0.00 48 1011.8
20260504181907 69 259 7.0 14.0 0.00 0.00 0.00 48 1011.8
20260504181357 69 167 5.0 13.0 0.00 0.00 0.00 51 1011.9
20260504180851 69 93 5.0 12.0 0.00 0.00 0.00 49 1011.9
20260504180607 69 248 5.0 12.0 0.00 0.00 0.00 49 1012.2
20260504175835 69 80 5.0 11.0 0.00 0.00 0.00 52 1012.2
20260504175330 69 71 5.0 11.0 0.00 0.00 0.00 47 1012.3
20260504174824 69 251 4.0 11.0 0.00 0.00 0.00 48 1012.2
20260504174314 69 142 5.0 11.0 0.00 0.00 0.00 47 1012.2
20260504173807 68 163 5.0 13.0 0.00 0.00 0.00 46 1012.3
20260504173301 68 138 6.0 13.0 0.00 0.00 0.00 48 1012.5
20260504172753 68 165 6.0 14.0 0.00 0.00 0.00 49 1012.5
20260504172246 68 165 6.0 16.0 0.00 0.00 0.00 49 1012.6
20260504171739 68 163 6.0 16.0 0.00 0.00 0.00 52 1012.5
20260504171230 68 155 6.0 16.0 0.00 0.00 0.00 52 1012.6
20260504170943 67 154 7.0 13.0 0.00 0.00 0.00 46 1012.7
20260504170216 67 141 7.0 15.0 0.00 0.00 0.00 48 1012.9
20260504151031 65 163 6.0 19.0 0.00 0.00 0.00 47 1014.0
20260504150530 65 151 5.0 10.0 0.00 0.00 0.00 53 1014.0
20260504141015 61 159 6.0 13.0 0.00 0.00 0.00 62 1014.1
20260504140515 61 171 6.0 14.0 0.00 0.00 0.00 61 1014.1
20260504130513 57 105 5.0 12.0 0.00 0.00 0.00 68 1014.6
20260504130237 57 148 6.0 15.0 0.00 0.00 0.00 70 1014.6
20260504110348 48 165 1.0 5.0 0.00 0.00 0.00 74 1014.8
20260504100221 43 173 2.0 6.0 0.00 0.00 0.00 75 1015.0
20260504081954 44 190 2.0 8.0 0.00 0.00 0.00 69 1015.1
20260504081444 43 167 2.0 8.0 0.00 0.00 0.00 69 1015.1
20260504080939 43 157 2.0 6.0 0.00 0.00 0.00 70 1015.0
20260504080432 42 184 2.0 5.0 0.00 0.00 0.00 70 1015.0
20260504080144 43 150 2.0 5.0 0.00 0.00 0.00 69 1015.0